Retour au catalogue

COSMOS 2498

ActifNavigationPO
NORAD 39763·PAYLOAD·🇷🇺 Russia

Lancé May 23, 2014 depuis Plesetsk Cosmodrome

Loading…

Prochains Passages (prochaines 24 heures)

TLE

FraisSource: Space-Track

Époque: Sep 14, 2026, 21:13 UTC

1 39763U 14028C   26257.88405597  .00000016  00000-0  48645-4 0  9999
2 39763  82.4444  52.6992 0020569 237.4532 122.4561 12.42983076558693

Suivez COSMOS 2498 en temps réel avec AllMySat

Download on the App Store